STARLINK-35394 (66023 NORAD) Tracking and Keplerian Element Data

This shows tracking and keplerian element data for the satellite.

Feedback or suggestion? Click here.




ElementValue
Catalog66023
NameSTARLINK-35394
Epoch Orbit1105
Epoch Day352.79900364
Epoch Year2025
RAAN119.4429
Inclination53.1601
Eccentricity6.48E-05
Argument of Perigee83.598
Mean Anonmoly276.5094
Mean Motion15.30214875
Decay Rate0.00019468
L11 66023U 25232U 25352.79900364 .00019468 00000+0 66739-3 0 9997
L22 66023 53.1601 119.4429 0000648 83.5980 276.5094 15.30214875 11052



Live tracking and technical data element details for STARLINK-35394 (NORAD 66023). STARLINK-35394 can be tracked NOW for your location showing map with azimuth and elevation plus other details from your city location.







IsCatalogInMostPopularTable: catalog: 66023, numindb: 12
Update: records affected: 1



GetName: 66023 STARLINK-35394

Hit Count: updated at: Mon, 20 Apr 2026 10:30:50 GMT